,,,PA_Meas_PMT16A,,PR_Meas_QMR101_102,,RH_Meas_QMH101,,SR_Meas_QMS101,,TA_Meas_QMH101,,GenWind,,GenWind,
date,time,status,PA,status,PR,status,RH,status,SR,status,TA,status,DirAvg,status,SpdAvg,
2011-10-31, 00:00:04,VALID,997.753,VALID,0,VALID,89.0987,VALID,0,VALID,22.7257,VALID,121,VALID,1.07227,
2011-10-31, 00:01:04,VALID,997.741,VALID,0,VALID,89.0834,VALID,0,VALID,22.6867,VALID,120,VALID,1.22617,
2011-10-31, 00:02:04,VALID,997.707,VALID,0,VALID,89.2513,VALID,0,VALID,22.6477,VALID,119,VALID,0.985156,
2011-10-31, 00:03:04,VALID,997.75,VALID,0,VALID,89.4039,VALID,0,VALID,22.6087,VALID,119,VALID,0.847266,
2011-10-31, 00:04:04,VALID,997.714,VALID,0,VALID,89.4649,VALID,0,VALID,22.5892,VALID,119,VALID,0.517969,
2011-10-31, 00:05:04,VALID,997.728,VALID,0,VALID,89.7472,VALID,0,VALID,22.5501,VALID,111,VALID,0.617188,
2011-10-31, 00:06:04,VALID,997.711,VALID,0,VALID,89.854,VALID,0,VALID,22.5306,VALID,111,VALID,0.234375,
2011-10-31, 00:07:04,VALID,997.715,VALID,0,VALID,89.9303,VALID,0,VALID,22.5111,VALID,111,VALID,0.608594,
2011-10-31, 00:08:04,VALID,997.728,VALID,0,VALID,89.9532,VALID,0.104696,VALID,22.4721,VALID,115,VALID,0.640234,
2011-10-31, 00:09:04,VALID,997.735,VALID,0,VALID,90.1058,VALID,0,VALID,22.4526,VALID,139,VALID,0.660547,
2011-10-31, 00:10:04,VALID,997.736,VALID,0,VALID,90.2203,VALID,0,VALID,22.4721,VALID,141,VALID,0.648828,
2011-10-31, 00:11:04,VALID,997.739,VALID,0,VALID,90.2279,VALID,0,VALID,22.4721,VALID,145,VALID,0.513281,
2011-10-31, 00:12:04,VALID,997.705,VALID,0,VALID,90.1821,VALID,0,VALID,22.4916,VALID,147,VALID,0.781641,
2011-10-31, 00:13:04,VALID,997.687,VALID,0,VALID,90.1668,VALID,0,VALID,22.5306,VALID,149,VALID,0.975391,
2011-10-31, 00:14:04,VALID,997.67,VALID,0,VALID,90.0982,VALID,0,VALID,22.5696,VALID,144,VALID,0.707812,
2011-10-31, 00:15:04,VALID,997.686,VALID,0,VALID,89.8922,VALID,0,VALID,22.6087,VALID,140,VALID,0.728516,
2011-10-31, 00:16:04,VALID,997.618,VALID,0,VALID,89.7701,VALID,0,VALID,22.6282,VALID,128,VALID,0.657031,
2011-10-31, 00:17:04,VALID,997.621,VALID,0,VALID,89.4573,VALID,0,VALID,22.6477,VALID,128,VALID,0.558594,
2011-10-31, 00:18:04,VALID,997.644,VALID,0,VALID,89.3734,VALID,0,VALID,22.6477,VALID,128,VALID,0.612891,
2011-10-31, 00:19:04,VALID,997.64,VALID,0,VALID,89.1979,VALID,0,VALID,22.6477,VALID,128,VALID,0.458203,
2011-10-31, 00:20:04,VALID,997.621,VALID,0,VALID,88.9919,VALID,0,VALID,22.5892,VALID,128,VALID,0.510938,
2011-10-31, 00:21:04,VALID,997.624,VALID,0,VALID,89.3734,VALID,0,VALID,22.5696,VALID,128,VALID,0.607813,
2011-10-31, 00:22:04,VALID,997.627,VALID,0,VALID,89.5565,VALID,0,VALID,22.5501,VALID,128,VALID,0.758984,
2011-10-31, 00:23:04,VALID,997.615,VALID,0,VALID,89.793,VALID,0,VALID,22.5909,VALID,128,VALID,0.786719,
2011-10-31, 00:24:04,VALID,997.592,VALID,0,VALID,89.6862,VALID,0.104696,VALID,22.6087,VALID,118,VALID,0.710938,
2011-10-31, 00:25:04,VALID,997.597,VALID,0,VALID,89.5107,VALID,0,VALID,22.6477,VALID,117,VALID,0.655078,
2011-10-31, 00:26:04,VALID,997.603,VALID,0,VALID,89.2513,VALID,0,VALID,22.6672,VALID,117,VALID,0.492969,
2011-10-31, 00:27:04,VALID,997.627,VALID,0,VALID,89.0529,VALID,0,VALID,22.6672,VALID,117,VALID,0.696094,
2011-10-31, 00:28:04,VALID,997.606,VALID,0,VALID,89.2513,VALID,0,VALID,22.6477,VALID,73,VALID,0.938672,
2011-10-31, 00:29:04,VALID,997.647,VALID,0,VALID,89.2666,VALID,0,VALID,22.6087,VALID,73,VALID,1.03984,
2011-10-31, 00:30:04,VALID,997.643,VALID,0,VALID,89.0606,VALID,0,VALID,22.5696,VALID,73,VALID,0.869141,
2011-10-31, 00:31:04,VALID,997.628,VALID,0,VALID,89.236,VALID,0,VALID,22.5111,VALID,73,VALID,0.803125,
2011-10-31, 00:32:04,VALID,997.627,VALID,0,VALID,89.3505,VALID,0,VALID,22.4721,VALID,73,VALID,0.667969,
2011-10-31, 00:33:04,VALID,997.604,VALID,0,VALID,89.4497,VALID,0,VALID,22.4331,VALID,73,VALID,0.773047,
2011-10-31, 00:34:04,VALID,997.601,VALID,0,VALID,89.4191,VALID,0,VALID,22.3941,VALID,73,VALID,0.809766,
2011-10-31, 00:35:04,VALID,997.572,VALID,0,VALID,89.4039,VALID,0,VALID,22.3551,VALID,73,VALID,0.733594,
2011-10-31, 00:36:04,VALID,997.544,VALID,0,VALID,89.4954,VALID,0,VALID,22.2966,VALID,62,VALID,1.06016,
2011-10-31, 00:37:04,VALID,997.561,VALID,0,VALID,89.8617,VALID,0,VALID,22.2949,VALID,70,VALID,0.849609,
2011-10-31, 00:38:04,VALID,997.534,VALID,0,VALID,89.8006,VALID,0,VALID,22.3373,VALID,70,VALID,0.367578,
2011-10-31, 00:39:04,VALID,997.514,VALID,0,VALID,89.587,VALID,0,VALID,22.3161,VALID,70,VALID,0.345703,
2011-10-31, 00:40:04,VALID,997.5,VALID,0,VALID,89.6328,VALID,0,VALID,22.2983,VALID,70,VALID,0.266406,
2011-10-31, 00:41:04,VALID,997.513,VALID,0,VALID,89.648,VALID,0,VALID,22.2381,VALID,70,VALID,0.202344,
2011-10-31, 00:42:04,VALID,997.488,VALID,0,VALID,89.648,VALID,0,VALID,22.2186,VALID,70,VALID,0,
2011-10-31, 00:43:04,VALID,997.464,VALID,0,VALID,89.7167,VALID,0,VALID,22.1795,VALID,70,VALID,0,
2011-10-31, 00:44:04,VALID,997.487,VALID,0,VALID,89.9532,VALID,0,VALID,22.16,VALID,70,VALID,0.150391,
2011-10-31, 00:45:04,VALID,997.418,VALID,0,VALID,90.0829,VALID,0,VALID,22.1405,VALID,70,VALID,0.0113281,
2011-10-31, 00:46:04,VALID,997.427,VALID,0,VALID,90.144,VALID,0,VALID,22.121,VALID,70,VALID,0,
2011-10-31, 00:47:04,VALID,997.406,VALID,0,VALID,90.2355,VALID,0,VALID,22.121,VALID,70,VALID,0,
2011-10-31, 00:48:04,VALID,997.406,VALID,0,VALID,90.2889,VALID,0,VALID,22.1015,VALID,70,VALID,0,
2011-10-31, 00:49:04,VALID,997.394,VALID,0,VALID,90.472,VALID,0,VALID,22.082,VALID,70,VALID,0,
2011-10-31, 00:50:04,VALID,997.374,VALID,0,VALID,90.7238,VALID,0,VALID,22.082,VALID,70,VALID,0.00898437,
2011-10-31, 00:51:04,VALID,997.401,VALID,0,VALID,90.9298,VALID,0,VALID,22.0625,VALID,70,VALID,0.00117188,
2011-10-31, 00:52:04,VALID,997.369,VALID,0,VALID,91.0671,VALID,0,VALID,22.1032,VALID,70,VALID,0.121094,
2011-10-31, 00:53:04,VALID,997.366,VALID,0,VALID,91.1129,VALID,0,VALID,22.082,VALID,70,VALID,0.273438,
2011-10-31, 00:54:04,VALID,997.37,VALID,0,VALID,90.9985,VALID,0,VALID,22.082,VALID,70,VALID,0.308594,
2011-10-31, 00:55:04,VALID,997.342,VALID,0,VALID,90.823,VALID,0,VALID,22.043,VALID,70,VALID,0.341797,
2011-10-31, 00:56:04,VALID,997.369,VALID,0,VALID,90.5636,VALID,0,VALID,22.004,VALID,70,VALID,0.135937,
2011-10-31, 00:57:04,VALID,997.375,VALID,0,VALID,90.411,VALID,0,VALID,21.9455,VALID,70,VALID,0.185937,
2011-10-31, 00:58:04,VALID,997.374,VALID,0,VALID,90.6094,VALID,0,VALID,21.887,VALID,70,VALID,0.378516,
2011-10-31, 00:59:04,VALID,997.329,VALID,0,VALID,91.2045,VALID,0,VALID,21.9065,VALID,125,VALID,1.13437,
2011-10-31, 01:00:04,VALID,997.308,VALID,0,VALID,91.4715,VALID,0,VALID,21.9862,VALID,135,VALID,1.11172,
2011-10-31, 01:01:04,VALID,997.29,VALID,0,VALID,91.3647,VALID,0,VALID,22.043,VALID,137,VALID,0.954297,
2011-10-31, 01:02:04,VALID,997.283,VALID,0,VALID,91.2426,VALID,0,VALID,22.082,VALID,137,VALID,0.740625,
2011-10-31, 01:03:04,VALID,997.241,VALID,0,VALID,91.0671,VALID,0,VALID,22.1227,VALID,137,VALID,0.63125,
2011-10-31, 01:04:04,VALID,997.259,VALID,0,VALID,90.884,VALID,0,VALID,22.1405,VALID,137,VALID,0.553906,
2011-10-31, 01:05:04,VALID,997.259,VALID,0,VALID,90.8688,VALID,0,VALID,22.1405,VALID,137,VALID,0.635156,
2011-10-31, 01:06:04,VALID,997.195,VALID,0,VALID,91.0748,VALID,0,VALID,22.1795,VALID,123,VALID,0.639063,
2011-10-31, 01:07:04,VALID,997.205,VALID,0,VALID,91.1968,VALID,0,VALID,22.1795,VALID,123,VALID,0.510938,
2011-10-31, 01:08:04,VALID,997.206,VALID,0,VALID,91.2884,VALID,0,VALID,22.2186,VALID,123,VALID,0.453906,
2011-10-31, 01:09:04,VALID,997.242,VALID,0,VALID,91.3723,VALID,0,VALID,22.2186,VALID,123,VALID,0.382813,
2011-10-31, 01:10:04,VALID,997.225,VALID,0,VALID,91.4334,VALID,0,VALID,22.2381,VALID,123,VALID,0.358594,
2011-10-31, 01:11:04,VALID,997.225,VALID,0,VALID,91.4868,VALID,0,VALID,22.2381,VALID,123,VALID,0.320703,
2011-10-31, 01:12:04,VALID,997.219,VALID,0,VALID,91.4944,VALID,0,VALID,22.2381,VALID,123,VALID,0.270312,
2011-10-31, 01:13:04,VALID,997.186,VALID,0,VALID,91.3571,VALID,0,VALID,22.199,VALID,123,VALID,0.333984,
2011-10-31, 01:14:04,VALID,997.175,VALID,0,VALID,91.2655,VALID,0,VALID,22.1389,VALID,123,VALID,0.137891,
2011-10-31, 01:15:04,VALID,997.173,VALID,0,VALID,91.235,VALID,0,VALID,22.1015,VALID,123,VALID,0.339844,
2011-10-31, 01:16:04,VALID,997.175,VALID,0,VALID,91.502,VALID,0,VALID,22.0413,VALID,123,VALID,0.396875,
2011-10-31, 01:17:04,VALID,997.122,VALID,0,VALID,91.8911,VALID,0,VALID,22.0625,VALID,123,VALID,0.544922,
2011-10-31, 01:18:04,VALID,997.143,VALID,0,VALID,92.2268,VALID,0,VALID,22.0625,VALID,123,VALID,0.591016,
2011-10-31, 01:19:04,VALID,997.125,VALID,0,VALID,92.3566,VALID,0,VALID,22.0235,VALID,123,VALID,0.451562,
2011-10-31, 01:20:04,VALID,997.1,VALID,0,VALID,92.3642,VALID,0,VALID,21.965,VALID,123,VALID,0.39375,
2011-10-31, 01:21:04,VALID,997.12,VALID,0,VALID,92.3794,VALID,0,VALID,21.9065,VALID,123,VALID,0.467578,
2011-10-31, 01:22:04,VALID,997.112,VALID,0,VALID,92.4557,VALID,0,VALID,21.848,VALID,123,VALID,0.340234,
2011-10-31, 01:23:04,VALID,997.083,VALID,0,VALID,92.5854,VALID,0,VALID,21.848,VALID,123,VALID,0.274219,
2011-10-31, 01:24:04,VALID,997.053,VALID,0,VALID,92.7457,VALID,0,VALID,21.809,VALID,123,VALID,0.340234,
2011-10-31, 01:25:04,VALID,997.039,VALID,0,VALID,92.8372,VALID,0,VALID,21.77,VALID,123,VALID,0.398438,
2011-10-31, 01:26:04,VALID,997.027,VALID,0,VALID,92.8983,VALID,0,VALID,21.7505,VALID,123,VALID,0.441016,
2011-10-31, 01:27:04,VALID,996.99,VALID,0,VALID,92.9669,VALID,0,VALID,21.7131,VALID,123,VALID,0.510938,
2011-10-31, 01:28:04,VALID,996.989,VALID,0,VALID,93.0127,VALID,0,VALID,21.6725,VALID,123,VALID,0.541016,
2011-10-31, 01:29:04,VALID,996.974,VALID,0,VALID,93.0356,VALID,0,VALID,21.614,VALID,123,VALID,0.4875,
2011-10-31, 01:30:04,VALID,996.978,VALID,0,VALID,93.0966,VALID,0,VALID,21.575,VALID,123,VALID,0.378906,
2011-10-31, 01:31:04,VALID,996.965,VALID,0,VALID,93.1348,VALID,0,VALID,21.536,VALID,123,VALID,0.203516,
2011-10-31, 01:32:04,VALID,996.947,VALID,0,VALID,93.1805,VALID,0,VALID,21.5165,VALID,123,VALID,0.0980469,
2011-10-31, 01:33:04,VALID,996.975,VALID,0,VALID,93.2187,VALID,0,VALID,21.4775,VALID,123,VALID,0,
2011-10-31, 01:34:04,VALID,996.935,VALID,0,VALID,93.2645,VALID,0,VALID,21.458,VALID,123,VALID,0.151562,
2011-10-31, 01:35:04,VALID,996.963,VALID,0,VALID,93.3713,VALID,0,VALID,21.4775,VALID,121,VALID,0.748438,
2011-10-31, 01:36:04,VALID,996.965,VALID,0,VALID,93.4476,VALID,0,VALID,21.5165,VALID,120,VALID,0.440625,
2011-10-31, 01:37:04,VALID,996.952,VALID,0,VALID,93.4934,VALID,0,VALID,21.5165,VALID,120,VALID,0.578516,
2011-10-31, 01:38:04,VALID,996.997,VALID,0,VALID,93.5468,VALID,0,VALID,21.5555,VALID,120,VALID,0.744531,
2011-10-31, 01:39:04,VALID,996.958,VALID,0,VALID,93.5926,VALID,0,VALID,21.5945,VALID,120,VALID,0.563281,
2011-10-31, 01:40:04,VALID,996.985,VALID,0,VALID,93.5544,VALID,0,VALID,21.6335,VALID,120,VALID,0.532812,
2011-10-31, 01:41:04,VALID,996.973,VALID,0,VALID,93.5163,VALID,0,VALID,21.653,VALID,120,VALID,0.499219,
2011-10-31, 01:42:04,VALID,996.956,VALID,0,VALID,93.4476,VALID,0,VALID,21.6725,VALID,120,VALID,0.384375,
2011-10-31, 01:43:04,VALID,996.961,VALID,0,VALID,93.3179,VALID,0,VALID,21.6725,VALID,120,VALID,0.463281,
2011-10-31, 01:44:04,VALID,996.973,VALID,0,VALID,93.1348,VALID,0.104696,VALID,21.653,VALID,120,VALID,0.505469,
2011-10-31, 01:45:04,VALID,996.963,VALID,0,VALID,92.9593,VALID,0,VALID,21.6335,VALID,120,VALID,0.567187,
2011-10-31, 01:46:04,VALID,996.996,VALID,0,VALID,92.7151,VALID,0,VALID,21.6546,VALID,120,VALID,0.680469,
2011-10-31, 01:47:04,VALID,996.971,VALID,0,VALID,92.5854,VALID,0,VALID,21.6335,VALID,120,VALID,0.755469,
2011-10-31, 01:48:04,VALID,996.964,VALID,0,VALID,92.5473,VALID,0,VALID,21.653,VALID,120,VALID,0.538672,
2011-10-31, 01:49:04,VALID,996.947,VALID,0,VALID,92.4786,VALID,0,VALID,21.6335,VALID,120,VALID,0.344922,
2011-10-31, 01:50:04,VALID,996.927,VALID,0,VALID,92.4634,VALID,0,VALID,21.6335,VALID,120,VALID,0.469531,
2011-10-31, 01:51:04,VALID,996.908,VALID,0,VALID,92.4634,VALID,0,VALID,21.614,VALID,120,VALID,0.244531,
2011-10-31, 01:52:04,VALID,996.885,VALID,0,VALID,92.5015,VALID,0,VALID,21.6335,VALID,120,VALID,0.4375,
2011-10-31, 01:53:04,VALID,996.874,VALID,0,VALID,92.5549,VALID,0,VALID,21.6351,VALID,120,VALID,0.135156,
2011-10-31, 01:54:04,VALID,996.884,VALID,0,VALID,92.5626,VALID,0,VALID,21.6156,VALID,120,VALID,0.264062,
2011-10-31, 01:55:04,VALID,996.901,VALID,0,VALID,92.6083,VALID,0,VALID,21.6368,VALID,120,VALID,0.153906,
2011-10-31, 01:56:04,VALID,996.911,VALID,0,VALID,92.616,VALID,0,VALID,21.5961,VALID,120,VALID,0,
2011-10-31, 01:57:04,VALID,996.879,VALID,0,VALID,92.6083,VALID,0,VALID,21.5571,VALID,120,VALID,0,
2011-10-31, 01:58:04,VALID,996.925,VALID,0,VALID,92.5702,VALID,0,VALID,21.5376,VALID,120,VALID,0,
2011-10-31, 01:59:04,VALID,996.9,VALID,0,VALID,92.6083,VALID,0,VALID,21.5376,VALID,120,VALID,0,
2011-10-31, 02:00:04,VALID,996.892,VALID,0,VALID,92.6999,VALID,0,VALID,21.5376,VALID,120,VALID,0,
2011-10-31, 02:01:04,VALID,996.871,VALID,0,VALID,92.7991,VALID,0,VALID,21.5376,VALID,120,VALID,0.0046875,
2011-10-31, 02:02:04,VALID,996.85,VALID,0,VALID,92.9135,VALID,0,VALID,21.5571,VALID,120,VALID,0.186328,
2011-10-31, 02:03:04,VALID,996.866,VALID,0,VALID,93.028,VALID,0,VALID,21.5766,VALID,120,VALID,0.339453,
2011-10-31, 02:04:04,VALID,996.858,VALID,0,VALID,93.0814,VALID,0,VALID,21.6173,VALID,120,VALID,0.00195313,
2011-10-31, 02:05:04,VALID,996.867,VALID,0,VALID,93.1043,VALID,0,VALID,21.5961,VALID,120,VALID,0,
2011-10-31, 02:06:04,VALID,996.842,VALID,0,VALID,93.1043,VALID,0,VALID,21.5961,VALID,120,VALID,0,
2011-10-31, 02:07:04,VALID,996.852,VALID,0,VALID,93.1119,VALID,0,VALID,21.6156,VALID,120,VALID,0,
2011-10-31, 02:08:04,VALID,996.87,VALID,0,VALID,93.1195,VALID,0,VALID,21.6351,VALID,120,VALID,0,
2011-10-31, 02:09:04,VALID,996.889,VALID,0,VALID,93.1043,VALID,0,VALID,21.6335,VALID,120,VALID,0,
2011-10-31, 02:10:04,VALID,996.869,VALID,0,VALID,93.1195,VALID,0,VALID,21.6546,VALID,120,VALID,0.239063,
2011-10-31, 02:11:04,VALID,996.851,VALID,0,VALID,93.1119,VALID,0,VALID,21.6335,VALID,120,VALID,0.292188,
2011-10-31, 02:12:04,VALID,996.847,VALID,0,VALID,93.028,VALID,0,VALID,21.5945,VALID,120,VALID,0.483594,
2011-10-31, 02:13:04,VALID,996.818,VALID,0,VALID,92.9822,VALID,0,VALID,21.614,VALID,120,VALID,0.698828,
2011-10-31, 02:14:04,VALID,996.825,VALID,0,VALID,92.9517,VALID,0,VALID,21.6351,VALID,120,VALID,0.673828,
2011-10-31, 02:15:04,VALID,996.78,VALID,0,VALID,92.9059,VALID,0,VALID,21.614,VALID,120,VALID,0.676953,
2011-10-31, 02:16:04,VALID,996.813,VALID,0,VALID,92.8601,VALID,0.104696,VALID,21.6335,VALID,120,VALID,0.455078,
2011-10-31, 02:17:04,VALID,996.802,VALID,0,VALID,92.8525,VALID,0,VALID,21.6123,VALID,120,VALID,0.35625,
2011-10-31, 02:18:04,VALID,996.786,VALID,0,VALID,92.7991,VALID,0,VALID,21.6335,VALID,120,VALID,0.465234,
2011-10-31, 02:19:04,VALID,996.805,VALID,0,VALID,92.7914,VALID,0,VALID,21.6335,VALID,120,VALID,0.522656,
2011-10-31, 02:20:04,VALID,996.773,VALID,0,VALID,92.822,VALID,0,VALID,21.6725,VALID,120,VALID,0.5,
2011-10-31, 02:21:04,VALID,996.797,VALID,0,VALID,92.7991,VALID,0,VALID,21.6725,VALID,120,VALID,0.775391,
2011-10-31, 02:22:04,VALID,996.785,VALID,0,VALID,92.7914,VALID,0,VALID,21.7115,VALID,106,VALID,0.729688,
2011-10-31, 02:23:04,VALID,996.81,VALID,0,VALID,92.7228,VALID,0,VALID,21.7505,VALID,104,VALID,0.778516,
2011-10-31, 02:24:04,VALID,996.778,VALID,0,VALID,92.5626,VALID,0,VALID,21.77,VALID,99,VALID,0.664844,
2011-10-31, 02:25:04,VALID,996.769,VALID,0,VALID,92.3947,VALID,0,VALID,21.7895,VALID,99,VALID,0.498437,
2011-10-31, 02:26:04,VALID,996.756,VALID,0,VALID,92.2955,VALID,0,VALID,21.809,VALID,99,VALID,0.407422,
2011-10-31, 02:27:04,VALID,996.753,VALID,0,VALID,92.1048,VALID,0,VALID,21.7895,VALID,99,VALID,0.194141,
2011-10-31, 02:28:04,VALID,996.763,VALID,0,VALID,92.059,VALID,0,VALID,21.77,VALID,99,VALID,0.194922,
2011-10-31, 02:29:04,VALID,996.797,VALID,0,VALID,92.0361,VALID,0,VALID,21.7505,VALID,99,VALID,0.0789063,
2011-10-31, 02:30:04,VALID,996.77,VALID,0,VALID,92.0514,VALID,0,VALID,21.731,VALID,99,VALID,0,
2011-10-31, 02:31:04,VALID,996.777,VALID,0,VALID,91.9903,VALID,0,VALID,21.6725,VALID,99,VALID,0,
2011-10-31, 02:32:04,VALID,996.777,VALID,0,VALID,91.914,VALID,0,VALID,21.6335,VALID,99,VALID,0,
2011-10-31, 02:33:04,VALID,996.802,VALID,0,VALID,91.9445,VALID,0,VALID,21.614,VALID,99,VALID,0,
2011-10-31, 02:34:04,VALID,996.789,VALID,0,VALID,92.1506,VALID,0,VALID,21.5945,VALID,99,VALID,0.123438,
2011-10-31, 02:35:04,VALID,996.771,VALID,0,VALID,92.3184,VALID,0,VALID,21.575,VALID,99,VALID,0.230469,
2011-10-31, 02:36:04,VALID,996.768,VALID,0,VALID,92.5091,VALID,0,VALID,21.5945,VALID,99,VALID,0.202344,
2011-10-31, 02:37:04,VALID,996.767,VALID,0,VALID,92.6236,VALID,0,VALID,21.614,VALID,99,VALID,0.241406,
2011-10-31, 02:38:04,VALID,996.765,VALID,0,VALID,92.6999,VALID,0,VALID,21.6351,VALID,99,VALID,0.457422,
2011-10-31, 02:39:04,VALID,996.759,VALID,0,VALID,92.6923,VALID,0,VALID,21.6335,VALID,99,VALID,0.316797,
2011-10-31, 02:40:04,VALID,996.758,VALID,0,VALID,92.6236,VALID,0,VALID,21.653,VALID,99,VALID,0.305859,
2011-10-31, 02:41:04,VALID,996.787,VALID,0,VALID,92.5091,VALID,0,VALID,21.653,VALID,99,VALID,0.310937,
2011-10-31, 02:42:04,VALID,996.78,VALID,0,VALID,92.3794,VALID,0,VALID,21.653,VALID,99,VALID,0.559375,
2011-10-31, 02:43:04,VALID,996.777,VALID,0,VALID,92.1963,VALID,0,VALID,21.6335,VALID,99,VALID,0.474609,
2011-10-31, 02:44:04,VALID,996.8,VALID,0,VALID,92.1048,VALID,0,VALID,21.614,VALID,99,VALID,0.547266,
2011-10-31, 02:45:04,VALID,996.793,VALID,0,VALID,91.9751,VALID,0.104696,VALID,21.614,VALID,93,VALID,0.604297,
2011-10-31, 02:46:04,VALID,996.823,VALID,0,VALID,91.9522,VALID,0,VALID,21.614,VALID,88,VALID,0.703516,
2011-10-31, 02:47:04,VALID,996.843,VALID,0,VALID,91.9445,VALID,0,VALID,21.5945,VALID,88,VALID,0.416797,
2011-10-31, 02:48:04,VALID,996.838,VALID,0,VALID,91.8377,VALID,0,VALID,21.5555,VALID,88,VALID,0.290234,
2011-10-31, 02:49:04,VALID,996.841,VALID,0,VALID,91.792,VALID,0.104696,VALID,21.497,VALID,88,VALID,0,
2011-10-31, 02:50:04,VALID,996.804,VALID,0,VALID,91.7843,VALID,0,VALID,21.458,VALID,88,VALID,0,
2011-10-31, 02:51:04,VALID,996.808,VALID,0,VALID,91.8911,VALID,0,VALID,21.419,VALID,88,VALID,0.146875,
2011-10-31, 02:52:04,VALID,996.827,VALID,0,VALID,92.1429,VALID,0,VALID,21.419,VALID,88,VALID,0.410547,
2011-10-31, 02:53:04,VALID,996.799,VALID,0,VALID,92.3718,VALID,0,VALID,21.4385,VALID,88,VALID,0.487891,
2011-10-31, 02:54:04,VALID,996.798,VALID,0,VALID,92.5244,VALID,0,VALID,21.4385,VALID,88,VALID,0.521094,
2011-10-31, 02:55:04,VALID,996.797,VALID,0,VALID,92.6541,VALID,0,VALID,21.4775,VALID,88,VALID,0.545703,
2011-10-31, 02:56:04,VALID,996.803,VALID,0,VALID,92.7609,VALID,0,VALID,21.5165,VALID,88,VALID,0.514063,
2011-10-31, 02:57:04,VALID,996.821,VALID,0,VALID,92.7838,VALID,0,VALID,21.536,VALID,88,VALID,0.556641,
2011-10-31, 02:58:04,VALID,996.813,VALID,0,VALID,92.822,VALID,0,VALID,21.5165,VALID,88,VALID,0.571094,
2011-10-31, 02:59:04,VALID,996.807,VALID,0,VALID,92.8372,VALID,0,VALID,21.536,VALID,88,VALID,0.428516,
2011-10-31, 03:00:04,VALID,996.806,VALID,0,VALID,92.8296,VALID,0,VALID,21.497,VALID,88,VALID,0.347266,
2011-10-31, 03:01:04,VALID,996.795,VALID,0,VALID,92.677,VALID,0,VALID,21.419,VALID,88,VALID,0.313672,
2011-10-31, 03:02:04,VALID,996.82,VALID,0,VALID,92.5015,VALID,0,VALID,21.341,VALID,87,VALID,0.585156,
2011-10-31, 03:03:04,VALID,996.788,VALID,0,VALID,92.6694,VALID,0.104696,VALID,21.341,VALID,70,VALID,0.442969,
2011-10-31, 03:04:04,VALID,996.808,VALID,0,VALID,92.8525,VALID,0,VALID,21.341,VALID,71,VALID,0.594531,
2011-10-31, 03:05:04,VALID,996.808,VALID,0,VALID,93.0585,VALID,0,VALID,21.38,VALID,89,VALID,0.620703,
2011-10-31, 03:06:04,VALID,996.828,VALID,0,VALID,93.1271,VALID,0.104696,VALID,21.3978,VALID,89,VALID,0.632422,
2011-10-31, 03:07:04,VALID,996.819,VALID,0,VALID,93.1424,VALID,0,VALID,21.419,VALID,89,VALID,0.3,
2011-10-31, 03:08:04,VALID,996.791,VALID,0,VALID,93.0661,VALID,0,VALID,21.4206,VALID,89,VALID,0.133984,
2011-10-31, 03:09:04,VALID,996.807,VALID,0,VALID,93.028,VALID,0,VALID,21.4206,VALID,89,VALID,0.0367187,
2011-10-31, 03:10:04,VALID,996.848,VALID,0,VALID,93.0432,VALID,0,VALID,21.4206,VALID,89,VALID,0.283203,
2011-10-31, 03:11:04,VALID,996.843,VALID,0,VALID,93.0356,VALID,0,VALID,21.4401,VALID,89,VALID,0.122656,
2011-10-31, 03:12:04,VALID,996.849,VALID,0,VALID,93.0661,VALID,0,VALID,21.4401,VALID,89,VALID,0.160938,
2011-10-31, 03:13:04,VALID,996.828,VALID,0,VALID,93.0814,VALID,0,VALID,21.4401,VALID,89,VALID,0.348828,
2011-10-31, 03:14:04,VALID,996.865,VALID,0,VALID,93.1043,VALID,0,VALID,21.4596,VALID,89,VALID,0.304297,
2011-10-31, 03:15:04,VALID,996.841,VALID,0,VALID,93.1119,VALID,0,VALID,21.4596,VALID,89,VALID,0.214453,
2011-10-31, 03:16:04,VALID,996.828,VALID,0,VALID,93.1119,VALID,0,VALID,21.4596,VALID,89,VALID,0.00585938,
2011-10-31, 03:17:04,VALID,996.828,VALID,0,VALID,93.0966,VALID,0,VALID,21.4401,VALID,89,VALID,0,
2011-10-31, 03:18:04,VALID,996.842,VALID,0,VALID,93.089,VALID,0,VALID,21.4596,VALID,89,VALID,0,
2011-10-31, 03:19:04,VALID,996.863,VALID,0,VALID,93.1119,VALID,0,VALID,21.4385,VALID,89,VALID,0,
2011-10-31, 03:20:04,VALID,996.857,VALID,0,VALID,93.1271,VALID,0,VALID,21.4791,VALID,89,VALID,0,
2011-10-31, 03:21:04,VALID,996.876,VALID,0,VALID,93.1271,VALID,0,VALID,21.4791,VALID,89,VALID,0,
2011-10-31, 03:22:04,VALID,996.867,VALID,0,VALID,93.15,VALID,0,VALID,21.4385,VALID,89,VALID,0,
2011-10-31, 03:23:04,VALID,996.914,VALID,0,VALID,93.1424,VALID,0,VALID,21.4596,VALID,89,VALID,0,
2011-10-31, 03:24:04,VALID,996.865,VALID,0,VALID,93.1577,VALID,0,VALID,21.4206,VALID,89,VALID,0,
2011-10-31, 03:25:04,VALID,996.852,VALID,0,VALID,93.1882,VALID,0,VALID,21.4401,VALID,89,VALID,0,
2011-10-31, 03:26:04,VALID,996.849,VALID,0,VALID,93.1348,VALID,0,VALID,21.4011,VALID,39,VALID,0,
2011-10-31, 03:27:04,VALID,996.859,VALID,0,VALID,93.1653,VALID,0,VALID,21.4011,VALID,26,VALID,0,
2011-10-31, 03:28:04,VALID,996.842,VALID,0,VALID,93.1958,VALID,0,VALID,21.4011,VALID,26,VALID,0.603906,
2011-10-31, 03:29:04,VALID,996.88,VALID,0,VALID,93.1958,VALID,0,VALID,21.3816,VALID,48,VALID,0.708203,
2011-10-31, 03:30:04,VALID,996.85,VALID,0,VALID,93.1653,VALID,0,VALID,21.3426,VALID,48,VALID,0.603125,
2011-10-31, 03:31:04,VALID,996.846,VALID,0,VALID,93.1195,VALID,0,VALID,21.2841,VALID,47,VALID,0.525,
2011-10-31, 03:32:04,VALID,996.886,VALID,0,VALID,93.1653,VALID,0,VALID,21.2857,VALID,47,VALID,0.296094,
2011-10-31, 03:33:04,VALID,996.88,VALID,0,VALID,93.1348,VALID,0,VALID,21.2061,VALID,47,VALID,0.380078,
2011-10-31, 03:34:04,VALID,996.885,VALID,0,VALID,93.1348,VALID,0,VALID,21.1281,VALID,47,VALID,0.224609,
2011-10-31, 03:35:04,VALID,996.85,VALID,0,VALID,93.1195,VALID,0,VALID,21.0696,VALID,47,VALID,0.257422,
2011-10-31, 03:36:04,VALID,996.888,VALID,0,VALID,93.1348,VALID,0,VALID,21.0306,VALID,47,VALID,0.408203,
2011-10-31, 03:37:04,VALID,996.868,VALID,0,VALID,93.2034,VALID,0,VALID,20.9916,VALID,47,VALID,0.635156,
2011-10-31, 03:38:04,VALID,996.877,VALID,0,VALID,93.3026,VALID,0,VALID,20.9705,VALID,47,VALID,0.627344,
2011-10-31, 03:39:04,VALID,996.883,VALID,0,VALID,93.4476,VALID,0,VALID,21.0095,VALID,47,VALID,0.633203,
2011-10-31, 03:40:04,VALID,996.912,VALID,0,VALID,93.5544,VALID,0,VALID,21.029,VALID,47,VALID,0.646094,
2011-10-31, 03:41:04,VALID,996.937,VALID,0,VALID,93.6307,VALID,0,VALID,21.0485,VALID,47,VALID,0.592969,
2011-10-31, 03:42:04,VALID,996.913,VALID,0,VALID,93.6841,VALID,0,VALID,21.0485,VALID,47,VALID,0.373828,
2011-10-31, 03:43:04,VALID,996.891,VALID,0,VALID,93.7299,VALID,0,VALID,21.0485,VALID,47,VALID,0.463281,
2011-10-31, 03:44:04,VALID,996.915,VALID,0,VALID,93.7604,VALID,0.104696,VALID,21.068,VALID,47,VALID,0.420703,
2011-10-31, 03:45:04,VALID,996.929,VALID,0,VALID,93.8062,VALID,0,VALID,21.0875,VALID,47,VALID,0.345313,
2011-10-31, 03:46:04,VALID,996.937,VALID,0,VALID,93.8291,VALID,0,VALID,21.107,VALID,47,VALID,0.306641,
2011-10-31, 03:47:04,VALID,996.926,VALID,0,VALID,93.8443,VALID,0,VALID,21.107,VALID,47,VALID,0.209375,